Location: Occidental Observatory
(38.4214°N, 122.9202°W)
Time: 22:37:57
(UTC-08:00)

Daily predictions for brighter satellites

Satellite Brightness Start Highest point End
(mag) Time Altitude Azimuth Time Altitude Azimuth Time Altitude Azimuth
METEOR-M 4.4 17:39:37 10° SE 17:44:43 47° ENE 17:49:49 10° N
COSMO-SKYMED 1 3.3 17:42:07 10° NNE 17:46:06 34° E 17:50:02 10° SSE
BREEZE-M DEB (TANK) 2.8 17:40:17 10° SW 17:48:16 69° SE 17:51:10 10° ENE
Cosmos 1674 2.6 17:45:36 10° S 17:49:20 66° E 17:53:04 10° NNE
NOSS 2-1 (C) 3.1 17:46:29 10° SSW 17:50:08 77° ESE 17:54:04 10° NE
NOSS 2-1 (D) 3.1 17:47:08 10° SSW 17:50:46 80° ESE 17:54:42 10° NE
IRAS Rocket 4.2 17:45:29 10° SSE 17:50:59 81° ENE 17:56:35 10° NNW
Meteor 2-1 Rocket 4.3 17:45:45 10° N 17:51:33 82° E 17:57:25 10° S
Lacrosse 4 Rocket 3.9 17:49:56 10° W 17:52:22 15° NW 17:54:48 10° NNW
Landsat 4 4.4 17:51:49 10° NNE 17:55:16 33° E 17:58:39 10° SSE
Cosmos 968 Rocket 4.4 17:53:36 10° N 17:57:53 26° ENE 18:02:07 10° ESE
Cosmos 1484 Rocket 4.0 17:55:02 10° S 17:58:45 47° W 18:02:26 10° NNW
CZ-4 R/B 4.5 17:55:24 10° SSE 17:59:25 55° ENE 18:03:27 10° N
BREEZE M DEB (TANK) 3.9 17:55:49 10° WSW 17:59:51 84° NW 18:16:03 10° ENE
Tiangong 1 1.2 17:58:03 10° W 18:00:27 42° NNW 18:02:20 14° NE
Cosmos 1315 Rocket 4.3 18:00:06 10° SE 18:02:46 18° E 18:04:59 12° NE
Cosmos 1842 Rocket 3.7 17:59:07 10° N 18:03:35 84° W 18:07:59 10° S
Meteor 2-14 Rocket 4.5 18:01:58 10° N 18:08:00 59° E 18:13:59 10° SSE
ATLAS 2AS CENTAUR R/B 3.0 18:02:23 10° NNW 18:10:14 61° NE 18:17:26 10° SE
Cosmos 2341 Rocket 4.0 18:04:31 10° N 18:10:47 72° E 18:17:03 10° SSE
Cosmos 1300 3.5 18:08:44 10° NNE 18:12:07 29° ENE 18:15:27 10° SE
Cosmos 2369 Rocket 2.2 18:07:01 10° NNW 18:12:39 62° ENE 18:18:16 10° SSE
H-2A R/B 4.2 18:10:23 10° SW 18:12:54 21° SSE 18:18:59 10° ESE
Meteor 2-10 4.1 18:08:41 10° N 18:13:35 50° ENE 18:18:30 10° SSE
Cosmos 962 Rocket 4.5 18:08:06 10° N 18:14:29 80° E 18:20:46 10° S
SKYMED 3 4.5 18:11:48 10° NNE 18:16:10 78° ESE 18:20:30 10° S
IRS-1A Rocket 4.3 18:11:03 10° SSE 18:16:34 87° WSW 18:22:11 10° NNW
Okean 3 Rocket 3.8 18:12:45 10° S 18:17:09 52° E 18:21:34 10° NNE
OAO 3 Rocket 3.9 18:12:49 10° SW 18:17:16 42° SSE 18:20:50 15° E
Cosmos 1076 Rocket 3.7 18:13:18 10° SSE 18:17:30 49° E 18:21:43 10° NNE
NOSS 2-1 (E) 3.8 18:15:23 10° SW 18:18:59 55° NW 18:22:58 10° NNE
Cosmos 1626 3.6 18:17:16 10° SE 18:19:30 18° E 18:19:30 18° E
ALOS 2.2 18:19:52 10° SSE 18:24:29 70° ENE 18:29:08 10° N
Cosmos 2084 3.1 18:20:53 10° NNW 18:24:41 86° NE 18:28:35 10° SE
MTI 3.7 18:21:37 10° NNE 18:24:51 88° W 18:28:02 10° SSW
Cosmos 1766 Rocket 4.2 18:21:55 10° SSE 18:25:47 32° E 18:28:50 15° NNE
SPOT 3 Rocket 3.5 18:26:11 10° SSE 18:31:15 65° ENE 18:36:21 10° N
Cosmos 1354 Rocket 4.4 18:26:28 10° NNW 18:31:45 69° WSW 18:37:01 10° S
ERS-2 2.3 18:29:35 10° SSE 18:33:08 49° ENE 18:36:43 10° N
SKYMED 2 4.0 18:29:54 10° N 18:34:12 65° WNW 18:38:30 10° SSW
Cosmos 2181 Rocket 4.2 18:29:31 10° S 18:35:58 81° W 18:42:26 10° N
Cosmos 1400 Rocket 2.9 18:32:39 10° SSW 18:36:38 77° W 18:40:44 10° N
Cosmos 1328 4.0 18:33:44 10° SSE 18:37:34 46° E 18:40:06 19° NNE
NOSS 3-3 (A) 4.4 18:31:56 10° SW 18:37:53 60° NW 18:44:25 10° NNE
NOSS 3-3 (C) 4.4 18:32:03 10° SW 18:37:59 61° NW 18:44:32 10° NNE
Cosmos 1943 Rocket 2.1 18:33:23 10° NNW 18:38:59 67° ENE 18:44:29 10° SSE
GEOS 3 Rocket 3.9 18:34:36 11° ESE 18:39:26 47° NE 18:44:35 10° NNW
Cosmos 1656 Rocket 4.4 18:35:05 10° N 18:39:47 28° ENE 18:40:57 26° E
FengYun 1-2 T 4.5 18:36:19 10° SE 18:41:42 47° ENE 18:47:03 10° N
MOS 1 4.4 18:36:44 10° S 18:42:22 80° WSW 18:48:03 10° NNW
YAOGAN 1 3.9 18:38:56 10° S 18:43:01 42° W 18:47:08 10° NNW
H-2A R/B 2.9 18:40:43 10° SSE 18:44:19 47° ENE 18:47:59 10° N
NOAA 12 4.5 18:52:52 10° S 18:58:03 65° WSW 19:03:16 10° NNW
CZ-4 R/B 4.4 18:55:21 10° SW 18:58:19 19° W 19:01:20 10° NW
FENGYUN 3A 4.2 18:54:02 10° S 18:59:17 58° W 19:04:35 10° NNW
Cosmos 2218 Rocket 4.0 18:57:22 10° N 19:03:33 82° W 19:09:41 10° S
Cosmos 1777 Rocket 4.4 18:59:18 10° N 19:03:43 40° NE 19:03:43 40° NE
SL-8 Rocket 4.4 19:00:13 10° NNW 19:06:20 64° W 19:12:27 10° S
Cosmos 2098 Rocket 3.6 19:06:00 10° N 19:10:49 55° E 19:16:50 10° SSE
Cosmos 44 3.1 19:12:57 10° SSW 19:16:37 58° SSE 19:16:37 58° SSE
Cosmos 1408 Rocket 3.9 19:17:10 10° SSW 19:21:25 63° W 19:23:19 31° N
Cosmos 44 Rocket 3.6 19:25:22 10° SSW 19:28:59 52° S 19:28:59 52° S
Thor Agena Rocket 4.3 19:55:10 42° NNW 19:56:19 50° WNW 20:01:21 10° SW
Nadezhda 3 Rocket 4.3 19:53:11 10° SSW 19:59:25 65° W 20:02:24 32° N
NOSS 3-4 (A) 4.1 20:16:34 10° NW 20:22:58 66° W 20:22:58 66° W
NOSS 3-4 (C) 4.1 20:16:40 10° NW 20:23:00 65° W 20:23:00 65° W
